Terug naar catalogus

STARLINK-36429

ActiefCommunicatieVLEO
NORAD 67356·PAYLOAD·🇺🇸 United States

Gelanceerd Jan 9, 2026 vanaf Cape Canaveral Space Force Station

Loading…

Volgende Passages (komende 24 uur)

TLE

VersSource: CelesTrak SupGP

Epoch: Sep 14, 2026, 22:40 UTC

1 67356C 26003Y   26257.94493056  .00028940  00000+0  10482-2 0  2576
2 67356  43.0024 238.5578 0001368 265.7604 125.9112 15.27564091    10

Volg STARLINK-36429 in realtime met AllMySat

Download on the App Store